Time,TemperatureF,DewpointF,PressureIn,WindDirection,WindDirectionDegrees,WindSpeedMPH,WindSpeedGustMPH,Humidity,HourlyPrecipIn,Conditions,Clouds,dailyrainin,SoftwareType,DateUTC
2013-07-29 00:02:00,67.0,63.3,29.97,ENE,68,0.0,0.2,88,0.00,,,0.00,WUHU216HW,2013-07-29 05:02:00,
2013-07-29 00:07:00,67.0,63.3,29.97,ENE,68,0.0,0.2,88,0.00,,,0.00,WUHU216HW,2013-07-29 05:07:00,
2013-07-29 00:12:00,67.0,63.3,29.97,ENE,68,0.0,0.0,88,0.00,,,0.00,WUHU216HW,2013-07-29 05:12:00,
2013-07-29 00:17:00,67.0,63.3,29.97,ENE,68,0.0,0.0,88,0.00,,,0.00,WUHU216HW,2013-07-29 05:17:00,
2013-07-29 00:22:00,67.0,63.3,29.97,ENE,68,0.0,0.0,88,0.00,,,0.00,WUHU216HW,2013-07-29 05:22:00,
2013-07-29 00:27:00,66.8,63.1,29.97,ENE,68,0.0,0.0,88,0.00,,,0.00,WUHU216HW,2013-07-29 05:27:00,
2013-07-29 00:32:00,66.6,62.9,29.97,ENE,68,0.0,0.0,88,0.00,,,0.00,WUHU216HW,2013-07-29 05:32:00,
2013-07-29 00:37:00,66.6,62.9,29.97,ENE,68,0.0,0.0,88,0.00,,,0.00,WUHU216HW,2013-07-29 05:37:00,
2013-07-29 00:42:00,66.6,62.9,29.97,ENE,68,0.0,0.0,88,0.00,,,0.00,WUHU216HW,2013-07-29 05:42:00,
2013-07-29 00:47:00,66.6,62.9,29.96,ENE,68,0.0,0.0,88,0.00,,,0.00,WUHU216HW,2013-07-29 05:47:00,
2013-07-29 00:52:00,66.6,62.9,29.96,NNE,23,0.9,0.9,88,0.00,,,0.00,WUHU216HW,2013-07-29 05:52:00,
2013-07-29 00:57:00,66.6,62.9,29.95,NNE,23,0.4,0.9,88,0.00,,,0.00,WUHU216HW,2013-07-29 05:57:00,
2013-07-29 01:02:00,66.6,62.9,29.95,ESE,113,0.4,1.3,88,0.00,,,0.00,WUHU216HW,2013-07-29 06:02:00,
2013-07-29 01:07:00,66.6,62.9,29.95,ESE,113,0.0,1.3,88,0.00,,,0.00,WUHU216HW,2013-07-29 06:07:00,
2013-07-29 01:12:00,66.6,62.9,29.96,ESE,113,0.0,0.4,88,0.00,,,0.00,WUHU216HW,2013-07-29 06:12:00,
2013-07-29 01:17:00,66.6,62.9,29.96,ESE,113,0.0,0.0,88,0.00,,,0.00,WUHU216HW,2013-07-29 06:17:00,
2013-07-29 01:22:00,66.6,62.9,29.96,ESE,113,0.0,0.0,88,0.00,,,0.00,WUHU216HW,2013-07-29 06:22:00,
2013-07-29 01:27:00,66.6,62.9,29.96,ESE,113,0.0,0.0,88,0.00,,,0.00,WUHU216HW,2013-07-29 06:27:00,
2013-07-29 01:32:00,66.4,62.7,29.96,ESE,113,0.3,0.7,88,0.00,,,0.00,WUHU216HW,2013-07-29 06:32:00,
2013-07-29 01:37:00,66.4,62.7,29.96,ESE,113,0.0,0.7,88,0.00,,,0.00,WUHU216HW,2013-07-29 06:37:00,
2013-07-29 01:42:00,66.4,62.7,29.96,ESE,113,0.0,0.2,88,0.00,,,0.00,WUHU216HW,2013-07-29 06:42:00,
2013-07-29 01:47:00,66.4,62.7,29.96,ESE,113,0.0,0.4,88,0.00,,,0.00,WUHU216HW,2013-07-29 06:47:00,
2013-07-29 01:52:00,66.4,62.7,29.96,ESE,113,0.0,0.4,88,0.00,,,0.00,WUHU216HW,2013-07-29 06:52:00,
2013-07-29 01:57:00,66.2,62.6,29.96,ESE,113,0.0,0.0,88,0.00,,,0.00,WUHU216HW,2013-07-29 06:57:00,
2013-07-29 02:02:00,66.2,62.6,29.96,ESE,113,0.1,0.2,88,0.00,,,0.00,WUHU216HW,2013-07-29 07:02:00,
2013-07-29 02:07:00,66.2,62.8,29.96,ESE,113,0.0,0.2,89,0.00,,,0.00,WUHU216HW,2013-07-29 07:07:00,
2013-07-29 02:12:00,66.2,62.6,29.96,ESE,113,0.0,0.0,88,0.00,,,0.00,WUHU216HW,2013-07-29 07:12:00,
2013-07-29 02:17:00,66.2,62.8,29.96,ESE,113,0.2,0.2,89,0.00,,,0.00,WUHU216HW,2013-07-29 07:17:00,
2013-07-29 02:22:00,66.2,62.8,29.96,ESE,113,0.0,0.2,89,0.00,,,0.00,WUHU216HW,2013-07-29 07:22:00,
2013-07-29 02:27:00,66.2,62.8,29.96,ESE,113,0.0,0.2,89,0.00,,,0.00,WUHU216HW,2013-07-29 07:27:00,
2013-07-29 02:32:00,66.2,62.8,29.96,ESE,113,0.0,0.0,89,0.00,,,0.00,WUHU216HW,2013-07-29 07:32:00,
2013-07-29 02:37:00,66.2,62.8,29.96,ESE,113,0.2,0.4,89,0.00,,,0.00,WUHU216HW,2013-07-29 07:37:00,
2013-07-29 02:42:00,66.2,62.8,29.97,SSW,203,0.3,1.1,89,0.00,,,0.00,WUHU216HW,2013-07-29 07:42:00,
2013-07-29 02:47:00,66.2,62.8,29.96,SSW,203,0.0,1.1,89,0.00,,,0.00,WUHU216HW,2013-07-29 07:47:00,
2013-07-29 02:52:00,66.2,62.8,29.96,SSW,203,0.0,0.0,89,0.00,,,0.00,WUHU216HW,2013-07-29 07:52:00,
2013-07-29 02:57:00,66.2,62.8,29.97,SSW,203,0.0,0.0,89,0.00,,,0.00,WUHU216HW,2013-07-29 07:57:00,
2013-07-29 03:02:00,66.2,62.8,29.97,SSW,203,0.0,0.0,89,0.00,,,0.00,WUHU216HW,2013-07-29 08:02:00,
2013-07-29 03:07:00,66.2,63.2,29.97,SSW,203,0.0,0.0,90,0.00,,,0.00,WUHU216HW,2013-07-29 08:07:00,
2013-07-29 03:12:00,66.2,62.8,29.97,SSW,203,0.0,0.0,89,0.00,,,0.00,WUHU216HW,2013-07-29 08:12:00,
2013-07-29 03:17:00,66.1,63.0,29.97,SSW,203,0.2,0.4,90,0.00,,,0.00,WUHU216HW,2013-07-29 08:17:00,
2013-07-29 03:22:00,66.1,63.0,29.97,South,180,0.2,0.4,90,0.00,,,0.00,WUHU216HW,2013-07-29 08:22:00,
2013-07-29 03:27:00,66.1,63.0,29.97,South,180,0.7,0.7,90,0.00,,,0.00,WUHU216HW,2013-07-29 08:27:00,
2013-07-29 03:32:00,66.1,63.0,29.96,SE,135,1.6,1.6,90,0.00,,,0.00,WUHU216HW,2013-07-29 08:32:00,
2013-07-29 03:37:00,65.9,62.8,29.96,ESE,113,2.2,2.2,90,0.00,,,0.00,WUHU216HW,2013-07-29 08:37:00,
2013-07-29 03:42:00,65.9,62.8,29.95,ESE,113,2.7,2.7,90,0.00,,,0.00,WUHU216HW,2013-07-29 08:42:00,
2013-07-29 03:47:00,65.9,62.8,29.95,SE,135,2.7,2.9,90,0.00,,,0.00,WUHU216HW,2013-07-29 08:47:00,
2013-07-29 03:52:00,65.9,62.8,29.95,SE,135,4.0,4.0,90,0.00,,,0.00,WUHU216HW,2013-07-29 08:52:00,
2013-07-29 03:57:00,65.9,62.8,29.96,ESE,113,1.1,4.0,90,0.00,,,0.00,WUHU216HW,2013-07-29 08:57:00,
2013-07-29 04:02:00,65.9,62.8,29.96,ESE,113,0.4,2.7,90,0.00,,,0.00,WUHU216HW,2013-07-29 09:02:00,
2013-07-29 04:07:00,65.7,62.7,29.96,ESE,113,0.6,1.8,90,0.01,,,0.01,WUHU216HW,2013-07-29 09:07:00,
2013-07-29 04:12:00,65.7,62.7,29.96,ESE,113,1.2,1.8,90,0.01,,,0.01,WUHU216HW,2013-07-29 09:12:00,
2013-07-29 04:17:00,65.7,62.4,29.96,SE,135,1.1,1.8,89,0.01,,,0.01,WUHU216HW,2013-07-29 09:17:00,
2013-07-29 04:22:00,65.7,62.7,29.96,ESE,113,0.9,1.6,90,0.01,,,0.01,WUHU216HW,2013-07-29 09:22:00,
2013-07-29 04:27:00,65.7,62.7,29.96,ESE,113,1.0,1.6,90,0.01,,,0.01,WUHU216HW,2013-07-29 09:27:00,
2013-07-29 04:32:00,65.7,62.7,29.97,ESE,113,1.8,1.8,90,0.01,,,0.01,WUHU216HW,2013-07-29 09:32:00,
2013-07-29 04:37:00,65.7,62.7,29.97,ESE,113,0.0,1.8,90,0.01,,,0.01,WUHU216HW,2013-07-29 09:37:00,
2013-07-29 04:42:00,65.7,63.0,29.97,ESE,113,0.4,2.7,91,0.01,,,0.01,WUHU216HW,2013-07-29 09:42:00,
2013-07-29 04:47:00,65.7,63.0,29.97,ESE,113,0.4,2.7,91,0.01,,,0.01,WUHU216HW,2013-07-29 09:47:00,
2013-07-29 04:52:00,65.9,63.2,29.97,ESE,113,0.0,0.9,91,0.01,,,0.01,WUHU216HW,2013-07-29 09:52:00,
2013-07-29 04:57:00,65.9,63.2,29.97,ESE,113,0.0,0.2,91,0.01,,,0.01,WUHU216HW,2013-07-29 09:57:00,
2013-07-29 05:02:00,65.9,63.2,29.97,ESE,113,0.0,0.0,91,0.01,,,0.01,WUHU216HW,2013-07-29 10:02:00,
2013-07-29 05:07:00,65.9,63.2,29.97,ESE,113,0.0,0.0,91,0.00,,,0.01,WUHU216HW,2013-07-29 10:07:00,
2013-07-29 05:12:00,65.9,63.2,29.97,ESE,113,0.0,0.0,91,0.00,,,0.01,WUHU216HW,2013-07-29 10:12:00,
2013-07-29 05:17:00,65.9,63.2,29.98,ESE,113,0.0,0.0,91,0.00,,,0.01,WUHU216HW,2013-07-29 10:17:00,
2013-07-29 05:22:00,65.9,63.2,29.98,ESE,113,0.0,0.0,91,0.00,,,0.01,WUHU216HW,2013-07-29 10:22:00,
2013-07-29 05:27:00,65.9,63.2,29.98,ESE,113,0.1,0.7,91,0.00,,,0.01,WUHU216HW,2013-07-29 10:27:00,
2013-07-29 05:32:00,65.9,63.2,29.98,ESE,113,1.1,1.1,91,0.00,,,0.01,WUHU216HW,2013-07-29 10:32:00,
2013-07-29 05:37:00,65.9,63.2,29.98,ESE,113,0.2,1.3,91,0.00,,,0.01,WUHU216HW,2013-07-29 10:37:00,
2013-07-29 05:42:00,65.9,63.2,29.98,ESE,113,0.0,1.3,91,0.00,,,0.01,WUHU216HW,2013-07-29 10:42:00,
2013-07-29 05:47:00,65.9,63.2,29.98,SE,135,0.8,0.9,91,0.00,,,0.01,WUHU216HW,2013-07-29 10:47:00,
2013-07-29 05:52:00,65.9,63.2,29.98,ESE,113,0.2,1.8,91,0.00,,,0.01,WUHU216HW,2013-07-29 10:52:00,
2013-07-29 05:58:00,65.9,63.2,29.98,ESE,113,0.7,1.8,91,0.00,,,0.01,WUHU216HW,2013-07-29 10:58:00,
2013-07-29 06:03:00,65.9,63.2,29.98,SE,130,0.4,2.2,91,0.00,,,0.01,WUHU216HW,2013-07-29 11:03:00,
2013-07-29 06:08:00,65.9,63.2,29.98,SE,135,0.8,2.2,91,0.00,,,0.01,WUHU216HW,2013-07-29 11:08:00,
2013-07-29 06:13:00,65.9,63.2,29.98,ESE,113,0.6,1.3,91,0.00,,,0.01,WUHU216HW,2013-07-29 11:13:00,
2013-07-29 06:18:00,65.9,63.2,29.98,SE,135,1.8,1.8,91,0.00,,,0.01,WUHU216HW,2013-07-29 11:18:00,
2013-07-29 06:23:00,65.9,63.2,29.98,ESE,113,0.9,1.8,91,0.00,,,0.01,WUHU216HW,2013-07-29 11:23:00,
2013-07-29 06:28:00,65.9,63.2,29.98,ESE,113,1.8,2.0,91,0.00,,,0.01,WUHU216HW,2013-07-29 11:28:00,
2013-07-29 06:33:00,65.7,63.0,29.98,ESE,113,0.8,2.0,91,0.00,,,0.01,WUHU216HW,2013-07-29 11:33:00,
2013-07-29 06:38:00,65.9,63.2,29.98,ESE,121,0.9,2.0,91,0.00,,,0.01,WUHU216HW,2013-07-29 11:38:00,
2013-07-29 06:44:00,65.9,63.2,29.98,ESE,113,0.9,2.0,91,0.00,,,0.01,WUHU216HW,2013-07-29 11:44:00,
2013-07-29 06:49:00,65.9,63.2,29.98,ESE,113,1.8,2.2,91,0.00,,,0.01,WUHU216HW,2013-07-29 11:49:00,
2013-07-29 06:54:00,65.9,63.2,29.98,ESE,113,1.8,2.2,91,0.00,,,0.01,WUHU216HW,2013-07-29 11:54:00,
2013-07-29 06:59:00,65.9,63.2,29.98,SE,135,0.4,1.8,91,0.00,,,0.01,WUHU216HW,2013-07-29 11:59:00,
2013-07-29 07:05:00,65.9,63.2,29.98,ESE,113,1.3,2.0,91,0.00,,,0.01,WUHU216HW,2013-07-29 12:05:00,
2013-07-29 07:10:00,66.1,63.4,29.98,ESE,113,1.8,2.0,91,0.00,,,0.01,WUHU216HW,2013-07-29 12:10:00,
2013-07-29 07:15:00,66.2,63.5,29.98,SE,135,1.6,2.7,91,0.00,,,0.01,WUHU216HW,2013-07-29 12:15:00,
2013-07-29 07:20:00,66.2,63.5,29.98,SE,135,1.1,2.7,91,0.00,,,0.01,WUHU216HW,2013-07-29 12:20:00,
2013-07-29 07:25:00,66.2,63.5,29.98,ESE,113,1.8,1.8,91,0.00,,,0.01,WUHU216HW,2013-07-29 12:25:00,
2013-07-29 07:30:00,66.2,63.5,29.99,East,97,1.3,1.8,91,0.00,,,0.01,WUHU216HW,2013-07-29 12:30:00,
2013-07-29 07:36:00,66.2,63.5,29.99,ESE,113,0.1,1.8,91,0.00,,,0.01,WUHU216HW,2013-07-29 12:36:00,
2013-07-29 07:42:00,66.4,63.6,30.00,ESE,113,0.3,1.1,91,0.00,,,0.01,WUHU216HW,2013-07-29 12:42:00,
2013-07-29 07:47:00,66.6,63.8,29.99,ESE,113,0.9,0.9,91,0.00,,,0.01,WUHU216HW,2013-07-29 12:47:00,
2013-07-29 07:52:00,66.6,63.8,30.00,SSE,158,0.2,0.9,91,0.00,,,0.01,WUHU216HW,2013-07-29 12:52:00,
2013-07-29 07:57:00,66.8,64.0,29.99,ESE,113,1.0,1.1,91,0.00,,,0.01,WUHU216HW,2013-07-29 12:57:00,
2013-07-29 08:02:00,66.8,64.0,30.00,ESE,113,1.5,2.0,91,0.00,,,0.01,WUHU216HW,2013-07-29 13:02:00,
2013-07-29 08:07:00,67.0,64.2,30.00,ESE,113,0.3,2.0,91,0.00,,,0.01,WUHU216HW,2013-07-29 13:07:00,
2013-07-29 08:12:00,67.1,64.4,30.00,East,90,0.4,1.1,91,0.00,,,0.01,WUHU216HW,2013-07-29 13:12:00,
2013-07-29 08:18:00,67.3,64.5,30.00,ESE,113,0.9,1.6,91,0.00,,,0.01,WUHU216HW,2013-07-29 13:18:00,
2013-07-29 08:23:00,67.3,64.3,30.00,ESE,113,0.9,2.9,90,0.00,,,0.01,WUHU216HW,2013-07-29 13:23:00,
2013-07-29 08:28:00,67.5,64.4,30.00,SE,135,2.2,2.2,90,0.00,,,0.01,WUHU216HW,2013-07-29 13:28:00,
2013-07-29 08:33:00,67.7,64.6,30.00,ESE,113,1.8,2.2,90,0.00,,,0.01,WUHU216HW,2013-07-29 13:33:00,
2013-07-29 08:38:00,68.0,65.0,30.00,ESE,113,2.2,2.5,90,0.00,,,0.01,WUHU216HW,2013-07-29 13:38:00,
2013-07-29 08:43:00,68.2,65.2,30.00,SE,135,2.0,3.4,90,0.00,,,0.01,WUHU216HW,2013-07-29 13:43:00,
2013-07-29 08:48:00,68.4,65.3,30.00,SE,135,0.4,3.4,90,0.00,,,0.01,WUHU216HW,2013-07-29 13:48:00,
2013-07-29 08:54:00,68.8,65.7,30.00,ESE,113,3.4,3.4,90,0.00,,,0.01,WUHU216HW,2013-07-29 13:54:00,
2013-07-29 08:59:00,69.1,66.1,30.00,SE,135,1.8,3.4,90,0.00,,,0.01,WUHU216HW,2013-07-29 13:59:00,
2013-07-29 09:04:00,69.5,66.1,30.00,SSE,158,2.5,3.6,89,0.00,,,0.01,WUHU216HW,2013-07-29 14:04:00,
2013-07-29 09:09:00,69.7,66.2,30.00,SE,126,1.5,3.6,89,0.00,,,0.01,WUHU216HW,2013-07-29 14:09:00,
2013-07-29 09:14:00,69.8,66.4,30.00,ESE,113,1.3,3.1,89,0.00,,,0.01,WUHU216HW,2013-07-29 14:14:00,
2013-07-29 09:19:00,70.0,66.6,30.00,ESE,113,3.1,3.1,89,0.00,,,0.01,WUHU216HW,2013-07-29 14:19:00,
2013-07-29 09:25:00,70.0,66.6,30.00,SE,126,1.8,3.1,89,0.00,,,0.01,WUHU216HW,2013-07-29 14:25:00,
2013-07-29 09:30:00,70.2,66.4,30.00,ESE,106,2.6,3.6,88,0.00,,,0.01,WUHU216HW,2013-07-29 14:30:00,
2013-07-29 09:34:00,71.3,67.9,30.00,ENE,68,4.0,4.9,89,0.00,,,0.01,WUHU216HW,2013-07-29 14:34:00,
2013-07-29 09:40:00,71.8,68.0,29.99,SE,135,1.1,4.9,88,0.00,,,0.01,WUHU216HW,2013-07-29 14:40:00,
2013-07-29 09:45:00,71.8,67.8,29.99,ESE,113,2.2,2.5,87,0.00,,,0.01,WUHU216HW,2013-07-29 14:45:00,
2013-07-29 09:50:00,71.6,67.6,29.99,SE,135,1.1,2.2,87,0.00,,,0.01,WUHU216HW,2013-07-29 14:50:00,
2013-07-29 09:55:00,71.5,67.1,29.99,SE,135,2.5,2.5,86,0.00,,,0.01,WUHU216HW,2013-07-29 14:55:00,
2013-07-29 10:00:00,71.5,67.4,29.99,NE,54,1.8,3.1,87,0.00,,,0.01,WUHU216HW,2013-07-29 15:00:00,
2013-07-29 10:05:00,71.6,67.6,29.99,SE,135,2.7,3.6,87,0.00,,,0.01,WUHU216HW,2013-07-29 15:05:00,
2013-07-29 10:10:00,71.6,67.6,29.99,ESE,113,1.6,3.6,87,0.00,,,0.01,WUHU216HW,2013-07-29 15:10:00,
2013-07-29 10:15:00,72.0,68.0,29.99,ESE,113,2.2,2.2,87,0.00,,,0.01,WUHU216HW,2013-07-29 15:15:00,
2013-07-29 10:20:00,72.2,68.1,29.99,SSW,203,1.3,2.2,87,0.00,,,0.01,WUHU216HW,2013-07-29 15:20:00,
2013-07-29 10:25:00,72.4,68.0,29.99,SE,130,2.0,3.1,86,0.00,,,0.01,WUHU216HW,2013-07-29 15:25:00,
2013-07-29 10:30:00,72.5,68.1,29.98,WSW,248,1.3,3.1,86,0.00,,,0.01,WUHU216HW,2013-07-29 15:30:00,
2013-07-29 10:35:00,72.7,68.3,29.98,ENE,68,3.4,3.4,86,0.00,,,0.01,WUHU216HW,2013-07-29 15:35:00,
2013-07-29 10:40:00,73.1,69.0,29.98,SE,135,1.1,3.4,87,0.00,,,0.01,WUHU216HW,2013-07-29 15:40:00,
2013-07-29 10:45:00,73.3,69.2,29.98,South,178,2.3,3.4,87,0.00,,,0.01,WUHU216HW,2013-07-29 15:45:00,
2013-07-29 10:50:00,73.6,69.6,29.98,SSW,200,2.2,3.4,87,0.00,,,0.01,WUHU216HW,2013-07-29 15:50:00,
2013-07-29 10:55:00,74.2,69.8,29.98,SE,135,1.1,2.7,86,0.00,,,0.01,WUHU216HW,2013-07-29 15:55:00,
2013-07-29 11:00:00,74.7,70.3,29.98,ESE,113,1.3,2.7,86,0.00,,,0.01,WUHU216HW,2013-07-29 16:00:00,
2013-07-29 11:06:00,75.4,70.7,29.98,ESE,117,1.0,2.2,85,0.00,,,0.01,WUHU216HW,2013-07-29 16:06:00,
2013-07-29 11:12:00,76.0,71.2,29.98,WSW,248,1.6,1.6,85,0.00,,,0.01,WUHU216HW,2013-07-29 16:12:00,
2013-07-29 11:17:00,76.3,70.8,29.98,SSW,197,2.0,3.1,83,0.00,,,0.01,WUHU216HW,2013-07-29 16:17:00,
2013-07-29 11:23:00,76.5,70.9,29.98,WNW,293,2.5,3.1,83,0.00,,,0.01,WUHU216HW,2013-07-29 16:23:00,
2013-07-29 11:28:00,76.3,70.8,29.98,ESE,113,2.2,2.5,83,0.00,,,0.01,WUHU216HW,2013-07-29 16:28:00,
2013-07-29 11:33:00,76.0,70.5,29.98,ESE,113,1.8,2.2,83,0.00,,,0.01,WUHU216HW,2013-07-29 16:33:00,
2013-07-29 11:38:00,76.0,70.5,29.98,SSE,158,1.1,2.7,83,0.00,,,0.01,WUHU216HW,2013-07-29 16:38:00,
2013-07-29 11:43:00,76.0,70.5,29.98,West,276,0.8,2.7,83,0.00,,,0.01,WUHU216HW,2013-07-29 16:43:00,
2013-07-29 11:48:00,76.3,70.8,29.98,SW,225,0.7,2.0,83,0.00,,,0.01,WUHU216HW,2013-07-29 16:48:00,
2013-07-29 11:53:00,76.7,71.1,29.98,ESE,113,0.7,2.0,83,0.00,,,0.01,WUHU216HW,2013-07-29 16:53:00,
2013-07-29 11:58:00,76.9,71.3,29.98,SE,135,1.8,1.8,83,0.00,,,0.01,WUHU216HW,2013-07-29 16:58:00,
2013-07-29 12:04:00,76.9,70.9,29.98,SE,135,1.2,3.4,82,0.00,,,0.01,WUHU216HW,2013-07-29 17:04:00,
2013-07-29 12:09:00,77.0,71.1,29.98,ESE,113,0.7,2.5,82,0.00,,,0.01,WUHU216HW,2013-07-29 17:09:00,
2013-07-29 12:14:00,77.0,71.1,29.98,ESE,117,1.2,2.5,82,0.00,,,0.01,WUHU216HW,2013-07-29 17:14:00,
2013-07-29 12:19:00,77.0,71.1,29.98,SSW,203,0.9,1.6,82,0.00,,,0.01,WUHU216HW,2013-07-29 17:19:00,
2013-07-29 12:24:00,77.0,71.1,29.98,SSE,163,1.0,2.7,82,0.00,,,0.01,WUHU216HW,2013-07-29 17:24:00,
2013-07-29 12:29:00,76.7,70.7,29.98,East,90,0.4,2.7,82,0.00,,,0.01,WUHU216HW,2013-07-29 17:29:00,
2013-07-29 12:34:00,76.3,70.5,29.97,SE,135,0.7,1.6,82,0.00,,,0.01,WUHU216HW,2013-07-29 17:34:00,
2013-07-29 12:39:00,76.0,70.1,29.97,ESE,113,0.6,2.0,82,0.00,,,0.01,WUHU216HW,2013-07-29 17:39:00,
2013-07-29 12:44:00,76.0,70.5,29.97,South,171,1.8,2.5,83,0.00,,,0.01,WUHU216HW,2013-07-29 17:44:00,
2013-07-29 12:49:00,75.8,70.3,29.97,NE,51,0.8,2.5,83,0.00,,,0.01,WUHU216HW,2013-07-29 17:49:00,
2013-07-29 12:54:00,75.8,70.7,29.97,SE,124,0.8,1.1,84,0.00,,,0.01,WUHU216HW,2013-07-29 17:54:00,
2013-07-29 12:59:00,75.8,70.7,29.96,SSW,203,0.6,1.1,84,0.00,,,0.01,WUHU216HW,2013-07-29 17:59:00,
2013-07-29 13:05:00,76.0,70.8,29.96,ESE,113,1.8,1.8,84,0.00,,,0.01,WUHU216HW,2013-07-29 18:05:00,
2013-07-29 13:10:00,76.0,70.8,29.96,NNE,23,2.2,2.2,84,0.00,,,0.01,WUHU216HW,2013-07-29 18:10:00,
2013-07-29 13:15:00,76.1,70.7,29.96,SE,135,1.6,2.2,83,0.00,,,0.01,WUHU216HW,2013-07-29 18:15:00,
2013-07-29 13:21:00,76.3,70.8,29.96,West,270,1.8,1.8,83,0.00,,,0.01,WUHU216HW,2013-07-29 18:21:00,
2013-07-29 13:27:00,76.3,70.8,29.96,North,6,0.8,1.8,83,0.00,,,0.01,WUHU216HW,2013-07-29 18:27:00,
2013-07-29 13:32:00,76.7,71.1,29.96,SE,135,0.4,2.7,83,0.00,,,0.01,WUHU216HW,2013-07-29 18:32:00,
2013-07-29 13:37:00,76.7,71.1,29.96,SE,128,1.1,2.7,83,0.00,,,0.01,WUHU216HW,2013-07-29 18:37:00,
2013-07-29 13:42:00,76.7,71.1,29.96,SE,138,1.8,3.1,83,0.00,,,0.01,WUHU216HW,2013-07-29 18:42:00,
2013-07-29 13:47:00,77.0,71.5,29.96,East,90,1.8,3.1,83,0.00,,,0.01,WUHU216HW,2013-07-29 18:47:00,
2013-07-29 13:52:00,77.0,71.1,29.96,ESE,115,0.8,1.8,82,0.00,,,0.01,WUHU216HW,2013-07-29 18:52:00,
2013-07-29 13:58:00,77.2,71.6,29.96,West,270,1.5,1.8,83,0.00,,,0.01,WUHU216HW,2013-07-29 18:58:00,
2013-07-29 14:03:00,77.8,71.8,29.96,SE,126,1.5,1.8,82,0.00,,,0.01,WUHU216HW,2013-07-29 19:03:00,
2013-07-29 14:08:00,78.3,72.4,29.95,SE,135,1.7,2.5,82,0.00,,,0.01,WUHU216HW,2013-07-29 19:08:00,
2013-07-29 14:13:00,79.0,73.1,29.95,South,180,0.9,2.5,82,0.00,,,0.01,WUHU216HW,2013-07-29 19:13:00,
2013-07-29 14:18:00,79.9,73.6,29.95,ESE,113,3.4,3.4,81,0.00,,,0.01,WUHU216HW,2013-07-29 19:18:00,
2013-07-29 14:23:00,80.6,74.4,29.95,SE,135,1.6,3.4,81,0.00,,,0.01,WUHU216HW,2013-07-29 19:23:00,
2013-07-29 14:28:00,80.8,74.5,29.95,SSW,203,1.6,2.5,81,0.00,,,0.01,WUHU216HW,2013-07-29 19:28:00,
2013-07-29 14:34:00,81.4,74.7,29.95,SSE,158,1.6,1.6,80,0.00,,,0.01,WUHU216HW,2013-07-29 19:34:00,
2013-07-29 14:39:00,81.5,74.9,29.95,SW,233,1.8,2.2,80,0.00,,,0.01,WUHU216HW,2013-07-29 19:39:00,
2013-07-29 14:44:00,81.9,74.8,29.94,SSW,203,2.5,2.9,79,0.00,,,0.01,WUHU216HW,2013-07-29 19:44:00,
2013-07-29 14:49:00,82.3,74.3,29.94,SW,225,2.2,2.9,77,0.00,,,0.01,WUHU216HW,2013-07-29 19:49:00,
2013-07-29 14:55:00,82.4,75.3,29.94,ESE,113,0.9,2.2,79,0.00,,,0.01,WUHU216HW,2013-07-29 19:55:00,
2013-07-29 15:00:00,82.8,75.2,29.94,SSE,158,1.4,2.9,78,0.00,,,0.01,WUHU216HW,2013-07-29 20:00:00,
2013-07-29 15:05:00,82.8,75.2,29.94,South,188,1.5,2.9,78,0.00,,,0.01,WUHU216HW,2013-07-29 20:05:00,
2013-07-29 15:10:00,82.8,74.4,29.94,WSW,248,3.6,3.6,76,0.00,,,0.01,WUHU216HW,2013-07-29 20:10:00,
2013-07-29 15:15:00,82.8,74.9,29.93,SE,124,1.7,3.6,77,0.00,,,0.01,WUHU216HW,2013-07-29 20:15:00,
2013-07-29 15:20:00,82.8,74.9,29.93,SSE,147,2.0,2.5,77,0.00,,,0.01,WUHU216HW,2013-07-29 20:20:00,
2013-07-29 15:25:00,83.0,74.6,29.93,ESE,113,1.8,2.5,76,0.00,,,0.01,WUHU216HW,2013-07-29 20:25:00,
2013-07-29 15:30:00,82.8,74.4,29.93,SSE,156,1.4,1.8,76,0.00,,,0.01,WUHU216HW,2013-07-29 20:30:00,
2013-07-29 15:35:00,83.2,74.8,29.93,SE,135,3.1,3.6,76,0.00,,,0.01,WUHU216HW,2013-07-29 20:35:00,
2013-07-29 15:40:00,83.0,74.6,29.93,SSE,160,1.5,3.6,76,0.00,,,0.01,WUHU216HW,2013-07-29 20:40:00,
2013-07-29 15:45:00,83.0,74.6,29.93,East,84,2.0,2.9,76,0.00,,,0.01,WUHU216HW,2013-07-29 20:45:00,
2013-07-29 15:50:00,82.8,74.4,29.93,WSW,248,1.8,2.9,76,0.00,,,0.01,WUHU216HW,2013-07-29 20:50:00,
2013-07-29 15:56:00,82.6,74.3,29.93,WNW,293,1.1,2.0,76,0.00,,,0.01,WUHU216HW,2013-07-29 20:56:00,
2013-07-29 16:01:00,82.4,74.2,29.93,WNW,297,1.4,4.0,76,0.00,,,0.01,WUHU216HW,2013-07-29 21:01:00,
2013-07-29 16:06:00,82.4,74.2,29.93,SSE,158,1.1,4.0,76,0.00,,,0.01,WUHU216HW,2013-07-29 21:06:00,
2013-07-29 16:11:00,82.4,74.2,29.93,South,180,1.1,2.7,76,0.00,,,0.01,WUHU216HW,2013-07-29 21:11:00,
2013-07-29 16:17:00,82.4,73.7,29.93,SSE,150,2.6,3.4,75,0.00,,,0.01,WUHU216HW,2013-07-29 21:17:00,
2013-07-29 16:22:00,82.4,74.2,29.93,North,0,1.1,3.4,76,0.00,,,0.01,WUHU216HW,2013-07-29 21:22:00,
2013-07-29 16:27:00,82.4,74.2,29.93,SSE,158,0.9,2.5,76,0.00,,,0.01,WUHU216HW,2013-07-29 21:27:00,
2013-07-29 16:32:00,82.4,74.2,29.93,NNW,335,1.5,1.8,76,0.00,,,0.01,WUHU216HW,2013-07-29 21:32:00,
2013-07-29 16:37:00,82.6,74.3,29.93,SSW,203,0.7,1.8,76,0.00,,,0.01,WUHU216HW,2013-07-29 21:37:00,
2013-07-29 16:42:00,82.4,74.2,29.93,SSW,203,1.1,2.0,76,0.00,,,0.01,WUHU216HW,2013-07-29 21:42:00,
2013-07-29 16:47:00,82.6,74.3,29.93,South,180,2.5,4.0,76,0.00,,,0.01,WUHU216HW,2013-07-29 21:47:00,
2013-07-29 16:52:00,82.6,74.3,29.93,West,263,1.8,4.0,76,0.00,,,0.01,WUHU216HW,2013-07-29 21:52:00,
2013-07-29 16:57:00,82.6,74.3,29.93,SSW,203,0.9,2.0,76,0.00,,,0.01,WUHU216HW,2013-07-29 21:57:00,
2013-07-29 17:02:00,82.4,74.2,29.92,SE,125,1.0,2.0,76,0.00,,,0.01,WUHU216HW,2013-07-29 22:02:00,
2013-07-29 17:08:00,82.4,74.2,29.92,SSE,158,1.3,2.0,76,0.00,,,0.01,WUHU216HW,2013-07-29 22:08:00,
2013-07-29 17:13:00,82.3,74.0,29.92,SSE,163,0.9,3.6,76,0.00,,,0.01,WUHU216HW,2013-07-29 22:13:00,
2013-07-29 17:18:00,82.1,73.8,29.91,East,90,1.6,3.6,76,0.00,,,0.01,WUHU216HW,2013-07-29 22:18:00,
2013-07-29 17:23:00,82.1,73.8,29.92,ESE,119,1.8,2.2,76,0.00,,,0.01,WUHU216HW,2013-07-29 22:23:00,
2013-07-29 17:28:00,82.1,73.8,29.92,SSE,158,2.2,2.2,76,0.00,,,0.01,WUHU216HW,2013-07-29 22:28:00,
2013-07-29 17:33:00,82.1,73.8,29.92,South,180,0.8,5.1,76,0.00,,,0.01,WUHU216HW,2013-07-29 22:33:00,
2013-07-29 17:38:00,82.1,73.8,29.92,SW,225,1.1,5.1,76,0.00,,,0.01,WUHU216HW,2013-07-29 22:38:00,
2013-07-29 17:43:00,82.1,73.8,29.92,SE,135,1.3,2.0,76,0.00,,,0.01,WUHU216HW,2013-07-29 22:43:00,
2013-07-29 17:48:00,82.1,73.8,29.93,SE,128,0.6,3.1,76,0.00,,,0.01,WUHU216HW,2013-07-29 22:48:00,
2013-07-29 17:53:00,81.9,73.6,29.93,SSE,158,1.1,3.1,76,0.00,,,0.01,WUHU216HW,2013-07-29 22:53:00,
2013-07-29 17:58:00,81.7,73.0,29.93,South,175,2.2,2.5,75,0.00,,,0.01,WUHU216HW,2013-07-29 22:58:00,
2013-07-29 18:03:00,81.4,72.7,29.93,NE,45,1.1,3.1,75,0.00,,,0.01,WUHU216HW,2013-07-29 23:03:00,
2013-07-29 18:08:00,81.2,72.9,29.93,SE,125,1.0,3.1,76,0.00,,,0.01,WUHU216HW,2013-07-29 23:08:00,
2013-07-29 18:14:00,80.8,72.5,29.93,ESE,113,0.9,1.1,76,0.00,,,0.01,WUHU216HW,2013-07-29 23:14:00,
2013-07-29 18:19:00,80.6,72.4,29.92,East,90,1.1,2.2,76,0.00,,,0.01,WUHU216HW,2013-07-29 23:19:00,
2013-07-29 18:24:00,80.5,72.2,29.92,ESE,113,2.2,2.2,76,0.00,,,0.01,WUHU216HW,2013-07-29 23:24:00,
2013-07-29 18:29:00,80.5,72.6,29.92,ESE,113,0.4,2.2,77,0.00,,,0.01,WUHU216HW,2013-07-29 23:29:00,
2013-07-29 18:34:00,80.3,72.5,29.92,SE,135,0.1,1.8,77,0.00,,,0.01,WUHU216HW,2013-07-29 23:34:00,
2013-07-29 18:40:00,80.1,72.3,29.91,ESE,113,1.6,1.6,77,0.00,,,0.01,WUHU216HW,2013-07-29 23:40:00,
2013-07-29 18:45:00,79.9,72.1,29.91,SSE,158,1.6,2.5,77,0.00,,,0.01,WUHU216HW,2013-07-29 23:45:00,
2013-07-29 18:50:00,79.9,72.1,29.92,SSE,158,1.5,2.5,77,0.00,,,0.01,WUHU216HW,2013-07-29 23:50:00,
2013-07-29 18:55:00,79.7,71.9,29.92,ESE,113,0.7,2.2,77,0.00,,,0.01,WUHU216HW,2013-07-29 23:55:00,
2013-07-29 19:01:00,79.6,71.7,29.92,ESE,113,0.4,1.6,77,0.00,,,0.01,WUHU216HW,2013-07-30 00:01:00,
2013-07-29 19:06:00,79.6,72.1,29.92,ESE,113,0.7,1.6,78,0.00,,,0.01,WUHU216HW,2013-07-30 00:06:00,
2013-07-29 19:11:00,79.4,71.9,29.92,SE,135,1.1,1.6,78,0.00,,,0.01,WUHU216HW,2013-07-30 00:11:00,
2013-07-29 19:16:00,79.2,71.7,29.92,East,90,1.1,1.1,78,0.00,,,0.01,WUHU216HW,2013-07-30 00:16:00,
2013-07-29 19:21:00,79.2,71.7,29.92,SE,135,0.4,1.1,78,0.00,,,0.01,WUHU216HW,2013-07-30 00:21:00,
2013-07-29 19:27:00,79.0,71.6,29.92,ESE,113,1.3,1.8,78,0.00,,,0.01,WUHU216HW,2013-07-30 00:27:00,
2013-07-29 19:32:00,78.8,71.4,29.92,East,98,0.6,1.8,78,0.00,,,0.01,WUHU216HW,2013-07-30 00:32:00,
2013-07-29 19:37:00,78.8,71.4,29.93,ESE,120,1.1,1.8,78,0.00,,,0.01,WUHU216HW,2013-07-30 00:37:00,
2013-07-29 19:42:00,78.7,71.2,29.93,SSE,158,0.2,1.8,78,0.00,,,0.01,WUHU216HW,2013-07-30 00:42:00,
2013-07-29 19:47:00,78.5,71.0,29.93,SE,135,0.6,1.6,78,0.00,,,0.01,WUHU216HW,2013-07-30 00:47:00,
2013-07-29 19:52:00,78.5,71.5,29.93,ESE,113,0.7,1.8,79,0.00,,,0.01,WUHU216HW,2013-07-30 00:52:00,
2013-07-29 19:57:00,78.3,71.3,29.93,SE,135,1.1,2.0,79,0.00,,,0.01,WUHU216HW,2013-07-30 00:57:00,
2013-07-29 20:03:00,78.3,71.3,29.92,ESE,113,1.6,2.0,79,0.00,,,0.01,WUHU216HW,2013-07-30 01:03:00,
2013-07-29 20:08:00,78.1,71.1,29.92,SE,135,1.1,1.6,79,0.00,,,0.01,WUHU216HW,2013-07-30 01:08:00,
2013-07-29 20:13:00,78.1,71.5,29.92,SE,135,1.6,1.6,80,0.00,,,0.01,WUHU216HW,2013-07-30 01:13:00,
2013-07-29 20:18:00,77.9,71.3,29.92,East,90,0.4,1.8,80,0.00,,,0.01,WUHU216HW,2013-07-30 01:18:00,
2013-07-29 20:23:00,77.8,71.1,29.92,SSE,158,2.7,2.7,80,0.00,,,0.01,WUHU216HW,2013-07-30 01:23:00,
2013-07-29 20:29:00,77.8,71.1,29.92,ESE,113,0.8,2.7,80,0.00,,,0.01,WUHU216HW,2013-07-30 01:29:00,
2013-07-29 20:34:00,77.8,71.1,29.92,ESE,114,1.2,2.2,80,0.00,,,0.01,WUHU216HW,2013-07-30 01:34:00,
2013-07-29 20:39:00,77.6,70.9,29.92,ESE,113,1.8,2.2,80,0.00,,,0.01,WUHU216HW,2013-07-30 01:39:00,
2013-07-29 20:44:00,77.4,71.1,29.93,SE,135,0.9,2.2,81,0.00,,,0.01,WUHU216HW,2013-07-30 01:44:00,
2013-07-29 20:49:00,77.4,71.1,29.93,SE,127,1.5,2.2,81,0.00,,,0.01,WUHU216HW,2013-07-30 01:49:00,
2013-07-29 20:54:00,77.4,71.1,29.93,SE,135,0.7,2.2,81,0.00,,,0.01,WUHU216HW,2013-07-30 01:54:00,
2013-07-29 20:59:00,77.4,71.1,29.93,ENE,68,1.1,3.4,81,0.00,,,0.01,WUHU216HW,2013-07-30 01:59:00,
2013-07-29 21:04:00,77.2,70.9,29.93,ESE,113,1.1,3.4,81,0.00,,,0.01,WUHU216HW,2013-07-30 02:04:00,
2013-07-29 21:09:00,77.2,70.9,29.93,ESE,113,0.4,1.1,81,0.00,,,0.01,WUHU216HW,2013-07-30 02:09:00,
2013-07-29 21:14:00,77.2,70.9,29.94,SE,125,1.0,1.8,81,0.00,,,0.01,WUHU216HW,2013-07-30 02:14:00,
2013-07-29 21:20:00,77.0,70.7,29.93,ENE,68,1.8,1.8,81,0.00,,,0.01,WUHU216HW,2013-07-30 02:20:00,
2013-07-29 21:25:00,77.0,70.7,29.93,ESE,113,0.9,1.8,81,0.00,,,0.01,WUHU216HW,2013-07-30 02:25:00,
2013-07-29 21:30:00,77.0,70.7,29.93,ENE,68,0.4,2.9,81,0.00,,,0.01,WUHU216HW,2013-07-30 02:30:00,
2013-07-29 21:35:00,77.0,70.7,29.93,East,90,1.6,2.9,81,0.00,,,0.01,WUHU216HW,2013-07-30 02:35:00,
2013-07-29 21:40:00,76.9,70.6,29.94,SE,135,0.4,1.6,81,0.00,,,0.01,WUHU216HW,2013-07-30 02:40:00,
2013-07-29 21:46:00,76.7,70.7,29.94,ESE,113,0.9,1.6,82,0.00,,,0.01,WUHU216HW,2013-07-30 02:46:00,
2013-07-29 21:51:00,76.5,70.6,29.94,ESE,113,2.0,2.0,82,0.00,,,0.01,WUHU216HW,2013-07-30 02:51:00,
2013-07-29 21:56:00,76.3,70.8,29.94,SE,135,0.9,2.0,83,0.00,,,0.01,WUHU216HW,2013-07-30 02:56:00,
2013-07-29 22:01:00,76.0,70.5,29.94,SE,135,3.1,3.1,83,0.01,,,0.02,WUHU216HW,2013-07-30 03:01:00,
2013-07-29 22:06:00,75.6,70.5,29.94,SE,135,0.9,3.1,84,0.01,,,0.02,WUHU216HW,2013-07-30 03:06:00,
2013-07-29 22:12:00,75.4,70.7,29.94,ESE,121,0.9,1.3,85,0.01,,,0.02,WUHU216HW,2013-07-30 03:12:00,
2013-07-29 22:17:00,75.1,70.3,29.95,ESE,113,0.2,1.3,85,0.02,,,0.03,WUHU216HW,2013-07-30 03:17:00,
2013-07-29 22:22:00,74.9,70.1,29.95,ESE,113,1.1,1.1,85,0.03,,,0.04,WUHU216HW,2013-07-30 03:22:00,
2013-07-29 22:27:00,74.5,70.1,29.94,ESE,113,1.2,1.3,86,0.04,,,0.05,WUHU216HW,2013-07-30 03:27:00,
2013-07-29 22:33:00,74.3,70.3,29.94,ESE,113,1.1,1.6,87,0.05,,,0.06,WUHU216HW,2013-07-30 03:33:00,
2013-07-29 22:38:00,74.2,70.1,29.93,ESE,113,1.4,3.4,87,0.05,,,0.06,WUHU216HW,2013-07-30 03:38:00,
2013-07-29 22:43:00,74.2,70.4,29.94,ESE,113,0.7,3.4,88,0.07,,,0.08,WUHU216HW,2013-07-30 03:43:00,
2013-07-29 22:48:00,74.0,70.2,29.95,SE,135,0.6,1.3,88,0.08,,,0.09,WUHU216HW,2013-07-30 03:48:00,
2013-07-29 22:53:00,73.8,70.4,29.95,SE,133,1.0,1.8,89,0.08,,,0.09,WUHU216HW,2013-07-30 03:53:00,
2013-07-29 22:58:00,73.8,70.4,29.95,ESE,113,1.6,1.8,89,0.08,,,0.10,WUHU216HW,2013-07-30 03:58:00,
2013-07-29 23:01:00,73.6,70.2,29.95,SE,135,0.8,1.8,89,0.08,,,0.10,WUHU216HW,2013-07-30 04:01:00,
2013-07-29 23:06:00,73.4,70.0,29.94,ESE,113,2.0,2.7,89,0.09,,,0.11,WUHU216HW,2013-07-30 04:06:00,
2013-07-29 23:11:00,73.4,70.0,29.94,ESE,113,1.8,2.7,89,0.09,,,0.11,WUHU216HW,2013-07-30 04:11:00,
2013-07-29 23:16:00,73.4,70.0,29.94,ESE,113,1.8,1.8,89,0.09,,,0.12,WUHU216HW,2013-07-30 04:16:00,
2013-07-29 23:21:00,73.3,70.2,29.94,ESE,113,1.0,1.8,90,0.08,,,0.12,WUHU216HW,2013-07-30 04:21:00,
2013-07-29 23:26:00,73.1,69.7,29.94,SE,135,0.4,1.6,89,0.08,,,0.13,WUHU216HW,2013-07-30 04:26:00,
2013-07-29 23:31:00,73.1,69.7,29.94,ESE,113,1.5,1.8,89,0.08,,,0.14,WUHU216HW,2013-07-30 04:31:00,
2013-07-29 23:36:00,73.1,69.7,29.95,SE,125,1.2,2.0,89,0.09,,,0.15,WUHU216HW,2013-07-30 04:36:00,
2013-07-29 23:41:00,72.9,69.8,29.95,ESE,113,1.1,3.1,90,0.07,,,0.15,WUHU216HW,2013-07-30 04:41:00,
2013-07-29 23:47:00,72.7,69.7,29.95,ESE,113,0.4,3.1,90,0.07,,,0.16,WUHU216HW,2013-07-30 04:47:00,
2013-07-29 23:52:00,72.7,69.7,29.96,ESE,120,1.0,1.3,90,0.08,,,0.17,WUHU216HW,2013-07-30 04:52:00,
2013-07-29 23:57:00,72.7,69.7,29.96,ESE,113,0.7,1.3,90,0.09,,,0.19,WUHU216HW,2013-07-30 04:57:00,